This is the latest recevied weather packets stored in our database for station/object SP6PWT-13. If no packets are shown the sender has not sent any weather packets the latest 10 day(s).
| Time | Temp. | Humidity | Pressure | Rain* | Wind** | Luminosity | Snow |
|---|---|---|---|---|---|---|---|
| 1777808895 | 25° C | 27% | 999.1 hPa | 0 mm | - | 636 W/m² | - |
| 1777808593 | 25° C | 27% | 999.3 hPa | 0 mm | - | 643 W/m² | - |
| 1777808293 | 25° C | 26% | 999.3 hPa | 0 mm | - | 647 W/m² | - |
| 1777807992 | 25° C | 25% | 999.4 hPa | 0 mm | - | 654 W/m² | - |
| 1777807691 | 25° C | 26% | 999.5 hPa | 0 mm | - | 661 W/m² | - |
| 1777807391 | 25.56° C | 24% | 999.4 hPa | 0 mm | - | 666 W/m² | - |
| 1777807090 | 25° C | 23% | 999.5 hPa | 0 mm | - | 665 W/m² | - |
| 1777806789 | 25° C | 24% | 999.5 hPa | 0 mm | - | 667 W/m² | - |
| 1777806488 | 25.56° C | 25% | 999.7 hPa | 0 mm | - | 665 W/m² | - |
| 1777806187 | 25.56° C | 25% | 999.6 hPa | 0 mm | - | 658 W/m² | - |
| 1777805887 | 25.56° C | 26% | 999.7 hPa | 0 mm | - | 658 W/m² | - |
| 1777805587 | 25° C | 25% | 999.7 hPa | 0 mm | - | 667 W/m² | - |
| 1777805286 | 25° C | 24% | 999.7 hPa | 0 mm | - | 669 W/m² | - |
| 1777804986 | 25° C | 26% | 999.8 hPa | 0 mm | - | 674 W/m² | - |
| 1777804685 | 24.44° C | 25% | 999.8 hPa | 0 mm | - | 659 W/m² | - |
| 1777804385 | 25° C | 25% | 999.8 hPa | 0 mm | - | 654 W/m² | - |
| 1777804085 | 25° C | 25% | 999.8 hPa | 0 mm | - | 629 W/m² | - |
| 1777803784 | 25° C | 25% | 999.9 hPa | 0 mm | - | 621 W/m² | - |
| 1777803484 | 25.56° C | 25% | 999.9 hPa | 0 mm | - | 639 W/m² | - |
| 1777803184 | 25° C | 25% | 1000.1 hPa | 0 mm | - | 617 W/m² | - |
| 1777802882 | 24.44° C | 26% | 1000 hPa | 0 mm | - | 656 W/m² | - |
| 1777802582 | 24.44° C | 27% | 1000.2 hPa | 0 mm | - | 640 W/m² | - |
| 1777802281 | 25° C | 26% | 1000 hPa | 0 mm | - | 649 W/m² | - |
| 1777801980 | 25° C | 25% | 1000.1 hPa | 0 mm | - | 633 W/m² | - |
| 1777801679 | 24.44° C | 26% | 1000.3 hPa | 0 mm | - | 630 W/m² | - |
* Rain latest hour (hover to see other rain measurements)
** Current wind speed in m/s (hover to see current wind gust speed)